TimeEST,TemperatureF,Dew PointF,Humidity,Sea Level PressureIn,VisibilityMPH,Wind Direction,Wind SpeedMPH,Gust SpeedMPH,PrecipitationIn,Events,Conditions,WindDirDegrees,DateUTC
12:53 AM,37.9,32.0,79,29.97,10.0,NW,6.9,-,N/A,,Clear,310,2013-12-04 05:53:00
1:53 AM,37.0,32.0,82,29.99,10.0,WNW,5.8,-,N/A,,Clear,300,2013-12-04 06:53:00
2:53 AM,37.0,32.0,82,30.00,10.0,West,5.8,-,N/A,,Clear,280,2013-12-04 07:53:00
3:53 AM,32.0,30.0,92,30.00,10.0,West,3.5,-,N/A,,Clear,280,2013-12-04 08:53:00
4:53 AM,36.0,32.0,86,30.01,10.0,West,4.6,-,N/A,,Clear,270,2013-12-04 09:53:00
5:53 AM,35.1,32.0,89,30.03,10.0,West,5.8,-,N/A,,Clear,270,2013-12-04 10:53:00
6:53 AM,36.0,30.9,82,30.06,10.0,West,5.8,-,N/A,,Clear,270,2013-12-04 11:53:00
7:53 AM,37.9,32.0,79,30.09,10.0,WNW,3.5,-,N/A,,Clear,300,2013-12-04 12:53:00
8:53 AM,42.1,30.9,65,30.11,10.0,NW,11.5,17.3,N/A,,Clear,320,2013-12-04 13:53:00
9:53 AM,41.0,30.0,65,30.12,10.0,NW,10.4,-,N/A,,Clear,320,2013-12-04 14:53:00
10:53 AM,43.0,30.0,60,30.10,10.0,NW,6.9,-,N/A,,Clear,310,2013-12-04 15:53:00
11:53 AM,44.1,28.0,53,30.09,10.0,NW,8.1,-,N/A,,Clear,310,2013-12-04 16:53:00
12:53 PM,46.9,28.0,48,30.09,10.0,NW,5.8,-,N/A,,Clear,310,2013-12-04 17:53:00
1:53 PM,46.9,28.0,48,30.10,10.0,NW,5.8,-,N/A,,Clear,310,2013-12-04 18:53:00
2:53 PM,45.0,30.9,58,30.12,10.0,West,4.6,-,N/A,,Clear,260,2013-12-04 19:53:00
3:53 PM,43.0,30.9,62,30.13,10.0,Calm,Calm,-,N/A,,Clear,0,2013-12-04 20:53:00
4:53 PM,36.0,30.0,79,30.15,10.0,Calm,Calm,-,N/A,,Clear,0,2013-12-04 21:53:00
5:53 PM,34.0,28.0,79,30.15,10.0,Calm,Calm,-,N/A,,Clear,0,2013-12-04 22:53:00
6:53 PM,30.0,26.1,85,30.18,10.0,Calm,Calm,-,N/A,,Clear,0,2013-12-04 23:53:00
7:53 PM,30.0,26.1,85,30.18,10.0,Calm,Calm,-,N/A,,Clear,0,2013-12-05 00:53:00
8:53 PM,28.0,24.1,85,30.18,10.0,Calm,Calm,-,N/A,,Clear,0,2013-12-05 01:53:00
9:53 PM,28.0,24.1,85,30.19,10.0,ENE,3.5,-,N/A,,Clear,70,2013-12-05 02:53:00
10:53 PM,26.1,24.1,92,30.21,8.0,Calm,Calm,-,N/A,,Clear,0,2013-12-05 03:53:00
11:45 PM,26.6,24.8,93,30.21,2.5,Calm,Calm,-,N/A,,Clear,0,2013-12-05 04:45:00
11:53 PM,26.1,23.0,88,30.21,4.0,Calm,Calm,-,N/A,,Clear,0,2013-12-05 04:53:00